Regional Weather Roundup
Issued by NWS

Home | Current Version | Previous Version | Text Only | Print | Product List | Glossary On
Versions: 1 2 3 4 5 6 7 8 9 10 11 12 13 14 15 16 17 18 19 20 21 22 23 24 25 26 27 28 29 30 31 32 33 34 35 36 37 38 39 40 41 42 43 44 45 46 47 48 49 50
000
ASUS44 KOUN 312000
RWROK

WEATHER ROUNDUP FOR OKLAHOMA
NATIONAL WEATHER SERVICE NORMAN OK
300 PM CDT TUE MAY 31 2016

NOTE: "FAIR" INDICATES FEW OR NO CLOUDS BELOW 12,000 FEET WITH NO
      SIGNIFICANT WEATHER AND/OR OBSTRUCTIONS TO VISIBILITY.

OKZ001>007-009>012-014-015-017-312100-
NORTHWEST OKLAHOMA AND THE PANHANDLE

CITY           SKY/WX    TMP DP  RH WIND       PRES   REMARKS
GAGE           CLOUDY    77  58  51 N13       29.95F
GUYMON         CLOUDY    73  55  53 N9        29.99F
ENID/WOODRING  CLOUDY    81  63  54 CALM      29.89F
$$

OKZ016-021>023-033>039-044-045-312100-
SOUTHWEST OKLAHOMA

CITY           SKY/WX    TMP DP  RH WIND       PRES   REMARKS
LAWTON/REGL    PTSUNNY   82  68  62 SE13      29.84F
FREDERICK      SUNNY     83  67  58 E9        29.82F
CLINTON        MOSUNNY   80  59  48 N10       29.93R
HOBART         LGT RAIN  84  62  47 N14       29.89S
$$

OKZ018>020-024>031-312100-
CENTRAL OKLAHOMA

CITY           SKY/WX    TMP DP  RH WIND       PRES   REMARKS
OKLAHOMA CITY  CLOUDY    79  68  69 NE7       29.89R
OKC/WILEY POST CLOUDY    79  66  64 N5        29.89R
OKC/TINKER AFB MOSUNNY   79  68  70 E3        29.88S
STILLWATER     CLOUDY    81  66  60 S7        29.88S
GUTHRIE        CLOUDY    79  66  64 SE7       29.88F
$$

OKZ008-013-054>072-312100-
NORTHEAST OKLAHOMA

CITY           SKY/WX    TMP DP  RH WIND       PRES   REMARKS
TULSA          PTSUNNY   82  70  66 E6        29.87S
TULSA/JONES    CLOUDY    81  66  60 S8        29.88R
PONCA CITY     CLOUDY    78  64  61 SE9       29.90S
BARTLESVILLE   PTSUNNY   82  68  62 SW3       29.90F
MUSKOGEE       CLOUDY    75  68  78 SE10      29.88F
$$

OKZ032-040>043-046>053-073>077-312100-
SOUTH CENTRAL/SOUTHEAST OKLAHOMA

CITY           SKY/WX    TMP DP  RH WIND       PRES   REMARKS
MCALESTER      CLOUDY    67  63  87 SE7       29.88F THUNDER
$$





USA.gov is the U.S. government's official web portal to all federal, state and local government web resources and services.